Location: Verona
(45.4500°N, 11.0000°E)
Time: 15:29:34
(UTC+02:00)

ISS - Visible Passes

Search period start: 18 October 2019 00:00
Search period end: 27 October 2019 23:00
Orbit: 411 x 421 km, 51.6° (Epoch: 18 October)

Date Brightness Start Highest point End Pass type
(mag) Time Alt. Az. Time Alt. Az. Time Alt. Az.
24 Oct -1.3 06:48:30 10° SSW 06:51:13 23° SE 06:53:56 10° E visible
25 Oct -0.8 06:00:53 10° SSE 06:02:46 14° SE 06:04:39 10° E visible
26 Oct -3.1 06:47:09 10° SW 06:50:27 55° SE 06:53:45 10° ENE visible
27 Oct -2.3 05:00:32 24° S 05:01:53 34° SE 05:04:58 10° ENE visible
